| time (UTC) | temp F | wind direction | speed MPH | gust MPH | rain 1hr in | rain 24hr in | rain mn in | humidity % | barometer mb |
| 20260506033340 | 50 | 257 | 2.0 | 3.0 | 0.00 | 0.19 | 0.19 | 95 | 1039.3 |
| 20260506032837 | 50 | 270 | 2.0 | 3.0 | 0.00 | 0.19 | 0.19 | 95 | 1039.1 |
| 20260506032333 | 50 | 265 | 2.0 | 3.0 | 0.00 | 0.19 | 0.19 | 94 | 1039.3 |
| 20260506031830 | 50 | 261 | 3.0 | 3.0 | 0.00 | 0.19 | 0.19 | 94 | 1039.5 |
| 20260506031328 | 50 | 243 | 6.0 | 6.0 | 0.00 | 0.19 | 0.19 | 95 | 1039.6 |
| 20260506030825 | 50 | 233 | 2.0 | 4.0 | 0.00 | 0.19 | 0.19 | 94 | 1039.8 |
| 20260506030323 | 50 | 257 | 3.0 | 3.0 | 0.00 | 0.19 | 0.19 | 95 | 1039.4 |
| 20260506025819 | 50 | 265 | 2.0 | 3.0 | 0.00 | 0.19 | 0.19 | 95 | 1039.5 |
| 20260506025316 | 50 | 270 | 2.0 | 3.0 | 0.00 | 0.19 | 0.19 | 95 | 1039.5 |
| 20260506024813 | 50 | 270 | 1.0 | 3.0 | 0.00 | 0.19 | 0.19 | 95 | 1039.8 |
| 20260506024310 | 50 | 265 | 2.0 | 3.0 | 0.00 | 0.19 | 0.19 | 95 | 1039.8 |
| 20260506023806 | 51 | 278 | 2.0 | 3.0 | 0.00 | 0.19 | 0.19 | 95 | 1039.9 |
| 20260506023303 | 51 | 264 | 2.0 | 3.0 | 0.00 | 0.19 | 0.19 | 94 | 1039.6 |
| 20260506022759 | 51 | 270 | 2.0 | 2.0 | 0.00 | 0.19 | 0.19 | 94 | 1040.1 |
| 20260506022258 | 51 | 241 | 2.0 | 3.0 | 0.00 | 0.19 | 0.19 | 93 | 1040.1 |
| 20260506021755 | 51 | 282 | 1.0 | 3.0 | 0.00 | 0.19 | 0.19 | 92 | 1040.3 |
| 20260506021252 | 51 | 251 | 3.0 | 3.0 | 0.00 | 0.19 | 0.19 | 93 | 1040.1 |
| 20260506020749 | 51 | 282 | 1.0 | 3.0 | 0.00 | 0.19 | 0.19 | 93 | 1039.8 |
| 20260506020247 | 52 | 270 | 2.0 | 3.0 | 0.00 | 0.19 | 0.19 | 91 | 1040.0 |
| 20260506015744 | 52 | 270 | 3.0 | 5.0 | 0.00 | 0.19 | 0.19 | 90 | 1039.9 |
| 20260506015241 | 51 | 250 | 3.0 | 6.0 | 0.00 | 0.19 | 0.19 | 91 | 1039.4 |
| 20260506014738 | 52 | 279 | 2.0 | 3.0 | 0.00 | 0.19 | 0.19 | 93 | 1039.2 |
| 20260506014235 | 52 | 292 | 4.0 | 5.0 | 0.00 | 0.19 | 0.19 | 92 | 1039.3 |
| 20260506013732 | 52 | 270 | 1.0 | 7.0 | 0.00 | 0.19 | 0.19 | 91 | 1039.3 |
| 20260506013229 | 52 | 250 | 5.0 | 6.0 | 0.00 | 0.19 | 0.19 | 91 | 1039.2 |
| 20260506012725 | 52 | 273 | 3.0 | 7.0 | 0.00 | 0.19 | 0.19 | 92 | 1039.0 |
| 20260506012222 | 53 | 248 | 3.0 | 3.0 | 0.00 | 0.19 | 0.19 | 91 | 1039.0 |
| 20260506011720 | 53 | 278 | 5.0 | 6.0 | 0.00 | 0.19 | 0.19 | 90 | 1038.8 |
| 20260506011215 | 53 | 253 | 3.0 | 8.0 | 0.00 | 0.19 | 0.19 | 89 | 1038.8 |
| 20260506010714 | 54 | 233 | 4.0 | 9.0 | 0.00 | 0.19 | 0.19 | 89 | 1039.0 |
| 20260506010211 | 54 | 266 | 3.0 | 6.0 | 0.00 | 0.19 | 0.19 | 91 | 1038.5 |
| 20260506005708 | 54 | 281 | 3.0 | 11.0 | 0.00 | 0.19 | 0.19 | 88 | 1038.7 |
| 20260506005205 | 55 | 240 | 3.0 | 3.0 | 0.00 | 0.19 | 0.19 | 89 | 1038.4 |
| 20260506004655 | 55 | 279 | 2.0 | 14.0 | 0.00 | 0.19 | 0.19 | 90 | 1038.4 |
| 20260506004153 | 55 | 290 | 2.0 | 6.0 | 0.00 | 0.19 | 0.19 | 88 | 1038.7 |
| 20260506003649 | 56 | 229 | 8.0 | 8.0 | 0.00 | 0.19 | 0.19 | 88 | 1038.6 |
| 20260506003146 | 57 | 270 | 3.0 | 5.0 | 0.00 | 0.19 | 0.19 | 92 | 1038.6 |
| 20260506002641 | 57 | 261 | 2.0 | 4.0 | 0.00 | 0.19 | 0.19 | 94 | 1038.3 |
| 20260506002138 | 58 | 266 | 5.0 | 5.0 | 0.02 | 0.19 | 0.19 | 99 | 1038.3 |
| 20260506001633 | 59 | 266 | 5.0 | 85.0 | 0.02 | 0.19 | 0.19 | 99 | 1037.9 |
| 20260506001131 | 60 | 266 | 5.0 | 8.0 | 0.00 | 0.18 | 0.18 | 99 | 1038.0 |
| 20260506000628 | 59 | 275 | 3.0 | 4.0 | 0.00 | 0.18 | 0.18 | 97 | 1037.7 |
| 20260506000125 | 60 | 270 | 3.0 | 4.0 | 0.00 | 0.18 | 0.18 | 98 | 1038.0 |
| 20260505235623 | 59 | 274 | 2.0 | 3.0 | 0.00 | 0.18 | 0.18 | 99 | 1037.8 |
| 20260505235120 | 59 | 255 | 3.0 | 4.0 | 0.00 | 0.18 | 0.18 | 99 | 1037.8 |
| 20260505234617 | 59 | 270 | 2.0 | 4.0 | 0.00 | 0.18 | 0.18 | 99 | 1037.6 |
| 20260505234114 | 59 | 263 | 3.0 | 4.0 | 0.00 | 0.18 | 0.18 | 99 | 1037.4 |
| 20260505233612 | 59 | 246 | 3.0 | 4.0 | 0.00 | 0.18 | 0.18 | 99 | 1037.3 |
| 20260505233109 | 59 | 265 | 2.0 | 4.0 | 0.00 | 0.18 | 0.18 | 99 | 1037.0 |
| 20260505232606 | 60 | 234 | 3.0 | 3.0 | 0.00 | 0.18 | 0.18 | 99 | 1037.0 |
| 20260505232104 | 60 | 233 | 3.0 | 5.0 | 0.00 | 0.18 | 0.18 | 99 | 1036.9 |
| 20260505231600 | 60 | 254 | 3.0 | 4.0 | 0.00 | 0.18 | 0.18 | 99 | 1036.7 |
| 20260505231059 | 60 | 254 | 3.0 | 5.0 | 0.00 | 0.18 | 0.18 | 99 | 1036.7 |
| 20260505230556 | 60 | 237 | 4.0 | 5.0 | 0.00 | 0.18 | 0.18 | 99 | 1036.8 |
| 20260505230052 | 60 | 238 | 3.0 | 4.0 | 0.00 | 0.18 | 0.18 | 98 | 1036.5 |
| 20260505225549 | 60 | 227 | 3.0 | 4.0 | 0.00 | 0.18 | 0.18 | 98 | 1036.5 |
| 20260505225045 | 60 | 230 | 3.0 | 4.0 | 0.00 | 0.18 | 0.18 | 98 | 1036.4 |
| 20260505224543 | 60 | 225 | 3.0 | 5.0 | 0.02 | 0.18 | 0.18 | 97 | 1036.3 |
| 20260505224040 | 61 | 238 | 3.0 | 4.0 | 0.02 | 0.18 | 0.18 | 96 | 1036.4 |
| 20260505223537 | 61 | 225 | 3.0 | 4.0 | 0.02 | 0.18 | 0.18 | 95 | 1036.4 |
| 20260505223033 | 62 | 237 | 3.0 | 4.0 | 0.02 | 0.18 | 0.18 | 92 | 1036.3 |
| 20260505222529 | 63 | 237 | 4.0 | 9.0 | 0.00 | 0.18 | 0.18 | 87 | 1036.2 |
| 20260505222025 | 64 | 242 | 3.0 | 7.0 | 0.00 | 0.18 | 0.18 | 86 | 1036.3 |
| 20260505221523 | 65 | 233 | 3.0 | 6.0 | 0.00 | 0.18 | 0.18 | 84 | 1036.0 |
| 20260505221019 | 66 | 270 | 6.0 | 6.0 | 0.00 | 0.18 | 0.18 | 92 | 1036.4 |
| 20260505220517 | 67 | 241 | 3.0 | 4.0 | 0.00 | 0.18 | 0.18 | 95 | 1035.8 |
| 20260505220015 | 67 | 232 | 3.0 | 5.0 | 0.00 | 0.18 | 0.18 | 92 | 1035.5 |
| 20260505215512 | 68 | 270 | 2.0 | 5.0 | 0.00 | 0.18 | 0.18 | 92 | 1035.4 |
| 20260505215010 | 69 | 229 | 3.0 | 4.0 | 0.00 | 0.18 | 0.18 | 91 | 1035.3 |
| 20260505214508 | 69 | 270 | 3.0 | 4.0 | 0.00 | 0.18 | 0.18 | 88 | 1035.4 |
| 20260505214004 | 70 | 263 | 4.0 | 4.0 | 0.00 | 0.18 | 0.18 | 89 | 1035.2 |
| 20260505213502 | 70 | 247 | 2.0 | 3.0 | 0.00 | 0.18 | 0.18 | 88 | 1035.4 |
| 20260505212958 | 70 | 270 | 2.0 | 4.0 | 0.00 | 0.18 | 0.18 | 87 | 1035.9 |
| 20260505212455 | 70 | 236 | 2.0 | 3.0 | 0.00 | 0.18 | 0.18 | 88 | 1035.4 |
| 20260505211952 | 71 | 263 | 3.0 | 3.0 | 0.00 | 0.18 | 0.18 | 88 | 1035.4 |
| 20260505211449 | 71 | 274 | 2.0 | 3.0 | 0.00 | 0.18 | 0.18 | 86 | 1035.2 |
| 20260505210945 | 71 | 251 | 2.0 | 4.0 | 0.00 | 0.18 | 0.18 | 85 | 1035.4 |
| 20260505210442 | 71 | 254 | 2.0 | 3.0 | 0.00 | 0.18 | 0.18 | 88 | 1035.0 |
| 20260505205939 | 70 | 266 | 3.0 | 5.0 | 0.00 | 0.18 | 0.18 | 88 | 1034.9 |
| 20260505205438 | 68 | 244 | 3.0 | 4.0 | 0.00 | 0.18 | 0.18 | 89 | 1035.1 |
| 20260505204934 | 68 | 260 | 3.0 | 4.0 | 0.00 | 0.18 | 0.18 | 91 | 1035.2 |
| 20260505204432 | 68 | 270 | 2.0 | 3.0 | 0.00 | 0.18 | 0.18 | 92 | 1035.3 |
| 20260505203929 | 68 | 281 | 3.0 | 3.0 | 0.00 | 0.18 | 0.18 | 94 | 1035.5 |
| 20260505203425 | 68 | 263 | 1.0 | 3.0 | 0.00 | 0.18 | 0.18 | 93 | 1035.6 |
| 20260505202922 | 68 | 270 | 2.0 | 3.0 | 0.00 | 0.18 | 0.18 | 93 | 1035.6 |
| 20260505202418 | 68 | 266 | 2.0 | 4.0 | 0.00 | 0.18 | 0.18 | 92 | 1035.9 |
| 20260505201915 | 68 | 287 | 2.0 | 4.0 | 0.00 | 0.18 | 0.18 | 93 | 1035.8 |
| 20260505201412 | 68 | 233 | 2.0 | 6.0 | 0.00 | 0.18 | 0.18 | 91 | 1035.9 |
| 20260505200910 | 66 | 270 | 1.0 | 3.0 | 0.00 | 0.18 | 0.18 | 97 | 1035.9 |
| 20260505200407 | 66 | 250 | 3.0 | 3.0 | 0.00 | 0.18 | 0.18 | 98 | 1036.0 |
| 20260505195902 | 63 | 240 | 3.0 | 3.0 | 0.00 | 0.18 | 0.18 | 99 | 1036.4 |
| 20260505195400 | 62 | 281 | 3.0 | 4.0 | 0.00 | 0.18 | 0.18 | 99 | 1036.2 |
| 20260505194857 | 62 | 270 | 3.0 | 3.0 | 0.00 | 0.18 | 0.18 | 99 | 1036.3 |
| 20260505194354 | 62 | 241 | 2.0 | 3.0 | 0.00 | 0.18 | 0.18 | 99 | 1036.5 |
| 20260505193854 | 61 | 248 | 2.0 | 3.0 | 0.05 | 0.18 | 0.18 | 99 | 1036.6 |
| 20260505193353 | 61 | 239 | 3.0 | 4.0 | 0.05 | 0.17 | 0.17 | 99 | 1037.0 |
| 20260505192850 | 61 | 274 | 2.0 | 3.0 | 0.02 | 0.17 | 0.17 | 99 | 1036.7 |
| 20260505192348 | 61 | 252 | 2.0 | 5.0 | 0.09 | 0.17 | 0.17 | 99 | 1036.8 |
| 20260505191845 | 62 | 270 | 0.0 | 4.0 | 0.12 | 0.16 | 0.16 | 99 | 1036.8 |
| 20260505191344 | 63 | 266 | 3.0 | 3.0 | 0.12 | 0.15 | 0.15 | 98 | 1036.8 |
| 20260505190840 | 63 | 266 | 3.0 | 3.0 | 0.12 | 0.14 | 0.14 | 97 | 1036.7 |
| 20260505190336 | 63 | 270 | 1.0 | 3.0 | 0.02 | 0.12 | 0.12 | 95 | 1036.6 |
| 20260505185831 | 64 | 270 | 2.0 | 3.0 | 0.02 | 0.12 | 0.12 | 95 | 1036.0 |
| 20260505185328 | 65 | 250 | 2.0 | 3.0 | 0.07 | 0.12 | 0.12 | 93 | 1035.8 |
| 20260505184824 | 66 | 260 | 2.0 | 3.0 | 0.24 | 0.11 | 0.11 | 92 | 1035.6 |
| 20260505184321 | 67 | 265 | 2.0 | 4.0 | 0.28 | 0.10 | 0.10 | 84 | 1035.6 |
| 20260505183819 | 71 | 290 | 4.0 | 7.0 | 0.07 | 0.07 | 0.07 | 64 | 1035.0 |
| 20260505183315 | 73 | 263 | 3.0 | 6.0 | 0.00 | 0.06 | 0.06 | 56 | 1034.5 |
| 20260505182812 | 74 | 270 | 3.0 | 4.0 | 0.00 | 0.06 | 0.06 | 55 | 1034.5 |
| 20260505182309 | 74 | 270 | 2.0 | 3.0 | 0.00 | 0.06 | 0.06 | 52 | 1034.3 |
| 20260505181806 | 75 | 244 | 3.0 | 8.0 | 0.00 | 0.06 | 0.06 | 53 | 1034.4 |
| 20260505181303 | 76 | 270 | 3.0 | 3.0 | 0.00 | 0.06 | 0.06 | 52 | 1034.4 |
| 20260505180759 | 76 | 274 | 3.0 | 5.0 | 0.00 | 0.06 | 0.06 | 49 | 1034.1 |
| 20260505180256 | 76 | 241 | 2.0 | 6.0 | 0.00 | 0.06 | 0.06 | 52 | 1034.6 |
| 20260505175752 | 77 | 270 | 2.0 | 3.0 | 0.00 | 0.06 | 0.06 | 52 | 1034.5 |
| 20260505175249 | 77 | 270 | 2.0 | 8.0 | 0.00 | 0.06 | 0.06 | 50 | 1034.6 |
| 20260505174745 | 77 | 254 | 4.0 | 9.0 | 0.00 | 0.06 | 0.06 | 48 | 1034.6 |
| 20260505174243 | 77 | 263 | 5.0 | 9.0 | 0.00 | 0.06 | 0.06 | 49 | 1034.6 |
| 20260505173738 | 78 | 290 | 2.0 | 4.0 | 0.00 | 0.06 | 0.06 | 48 | 1035.0 |
| 20260505173235 | 76 | 262 | 2.0 | 4.0 | 0.00 | 0.06 | 0.06 | 54 | 1035.1 |
| 20260505172732 | 75 | 254 | 2.0 | 5.0 | 0.00 | 0.06 | 0.06 | 55 | 1035.1 |
| 20260505172229 | 74 | 306 | 1.0 | 7.0 | 0.00 | 0.06 | 0.06 | 52 | 1035.4 |
| 20260505171729 | 74 | 286 | 2.0 | 5.0 | 0.00 | 0.06 | 0.06 | 55 | 1035.4 |
| 20260505171227 | 73 | 298 | 7.0 | 7.0 | 0.00 | 0.06 | 0.06 | 55 | 1035.3 |
| 20260505170723 | 73 | 279 | 2.0 | 6.0 | 0.00 | 0.06 | 0.06 | 58 | 1035.1 |
| 20260505170220 | 73 | 247 | 2.0 | 5.0 | 0.00 | 0.06 | 0.06 | 52 | 1035.2 |
| 20260505165715 | 74 | 270 | 2.0 | 6.0 | 0.00 | 0.06 | 0.06 | 54 | 1035.5 |
| 20260505165212 | 74 | 270 | 1.0 | 5.0 | 0.00 | 0.06 | 0.06 | 55 | 1035.6 |
| 20260505164707 | 74 | 285 | 3.0 | 11.0 | 0.00 | 0.06 | 0.06 | 53 | 1035.1 |
| 20260505164204 | 75 | 198 | 0.0 | 4.0 | 0.00 | 0.06 | 0.06 | 50 | 1035.0 |
| 20260505163703 | 74 | 279 | 2.0 | 5.0 | 0.00 | 0.06 | 0.06 | 56 | 1035.0 |
| 20260505163201 | 74 | 274 | 3.0 | 11.0 | 0.00 | 0.06 | 0.06 | 54 | 1034.9 |
| 20260505162658 | 75 | 169 | 2.0 | 8.0 | 0.00 | 0.06 | 0.06 | 51 | 1034.7 |
| 20260505162155 | 75 | 135 | 2.0 | 9.0 | 0.00 | 0.06 | 0.06 | 55 | 1035.1 |
| 20260505161652 | 75 | 332 | 2.0 | 8.0 | 0.00 | 0.06 | 0.06 | 52 | 1034.6 |
| 20260505161149 | 75 | 257 | 9.0 | 9.0 | 0.00 | 0.06 | 0.06 | 50 | 1035.0 |
| 20260505160647 | 75 | 192 | 5.0 | 11.0 | 0.00 | 0.06 | 0.06 | 50 | 1035.2 |
| 20260505160144 | 75 | 261 | 2.0 | 5.0 | 0.00 | 0.06 | 0.06 | 53 | 1035.1 |
| 20260505153123 | 76 | 270 | 2.0 | 7.0 | 0.00 | 0.06 | 0.06 | 53 | 1035.6 |
| 20260505152620 | 77 | 319 | 2.0 | 7.0 | 0.00 | 0.06 | 0.06 | 53 | 1035.5 |
| 20260505152116 | 77 | 279 | 2.0 | 6.0 | 0.00 | 0.06 | 0.06 | 54 | 1035.4 |
| 20260505151611 | 76 | 261 | 2.0 | 6.0 | 0.00 | 0.06 | 0.06 | 51 | 1035.4 |
| 20260505151109 | 76 | 225 | 4.0 | 6.0 | 0.00 | 0.06 | 0.06 | 50 | 1035.3 |
| 20260505150605 | 76 | 249 | 10.0 | 11.0 | 0.00 | 0.06 | 0.06 | 51 | 1035.2 |
| 20260505140530 | 74 | 245 | 2.0 | 3.0 | 0.00 | 0.06 | 0.06 | 62 | 1035.2 |
| 20260505124944 | 65 | 265 | 2.0 | 3.0 | 0.00 | 0.06 | 0.06 | 84 | 1036.1 |
| 20260505124441 | 65 | 249 | 4.0 | 4.0 | 0.00 | 0.06 | 0.06 | 78 | 1036.0 |
| 20260505123937 | 64 | 292 | 0.0 | 6.0 | 0.00 | 0.06 | 0.06 | 85 | 1035.9 |
| 20260505123433 | 63 | 247 | 4.0 | 4.0 | 0.00 | 0.06 | 0.06 | 83 | 1036.3 |
| 20260505122929 | 61 | 293 | 4.0 | 5.0 | 0.00 | 0.06 | 0.06 | 83 | 1036.4 |
| 20260505122427 | 60 | 294 | 1.0 | 5.0 | 0.00 | 0.06 | 0.06 | 89 | 1036.4 |
| 20260505121923 | 59 | 250 | 2.0 | 5.0 | 0.00 | 0.06 | 0.06 | 91 | 1036.2 |
| 20260505121421 | 58 | 270 | 2.0 | 5.0 | 0.00 | 0.06 | 0.06 | 91 | 1036.4 |
| 20260505120916 | 57 | 275 | 2.0 | 4.0 | 0.00 | 0.06 | 0.06 | 93 | 1036.3 |
| 20260505120413 | 57 | 255 | 1.0 | 5.0 | 0.00 | 0.06 | 0.06 | 91 | 1036.3 |
| 20260505115912 | 57 | 243 | 2.0 | 4.0 | 0.00 | 0.06 | 0.06 | 93 | 1036.4 |
| 20260505115409 | 57 | 276 | 1.0 | 3.0 | 0.00 | 0.06 | 0.06 | 95 | 1036.5 |
| 20260505114907 | 55 | 270 | 0.0 | 5.0 | 0.00 | 0.06 | 0.06 | 98 | 1036.4 |
| 20260505114403 | 55 | 331 | 3.0 | 3.0 | 0.00 | 0.06 | 0.06 | 99 | 1036.1 |
| 20260505113859 | 55 | 257 | 2.0 | 4.0 | 0.00 | 0.06 | 0.06 | 99 | 1036.2 |
| 20260505113356 | 55 | 283 | 2.0 | 3.0 | 0.00 | 0.06 | 0.06 | 99 | 1036.2 |
| 20260505112852 | 55 | 278 | 2.0 | 3.0 | 0.00 | 0.06 | 0.06 | 99 | 1036.2 |
| 20260505112350 | 54 | 255 | 2.0 | 4.0 | 0.00 | 0.06 | 0.06 | 99 | 1036.2 |
| 20260505111845 | 54 | 279 | 2.0 | 3.0 | 0.00 | 0.06 | 0.06 | 99 | 1035.8 |
| 20260505111340 | 54 | 270 | 2.0 | 3.0 | 0.00 | 0.06 | 0.06 | 99 | 1035.6 |
| 20260505110837 | 53 | 216 | 2.0 | 4.0 | 0.00 | 0.06 | 0.06 | 99 | 1036.2 |
| 20260505110334 | 53 | 264 | 2.0 | 2.0 | 0.00 | 0.06 | 0.06 | 99 | 1036.2 |
| 20260505101809 | 54 | 276 | 1.0 | 3.0 | 0.00 | 0.06 | 0.06 | 99 | 1035.4 |
| 20260505101304 | 54 | 249 | 1.0 | 3.0 | 0.00 | 0.06 | 0.06 | 99 | 1035.0 |
| 20260505100801 | 55 | 247 | 3.0 | 3.0 | 0.09 | 0.06 | 0.06 | 98 | 1035.3 |
| 20260505100257 | 56 | 252 | 3.0 | 3.0 | 0.33 | 0.06 | 0.06 | 95 | 1035.5 |
| 20260505095753 | 57 | 242 | 3.0 | 5.0 | 0.19 | 0.03 | 0.03 | 91 | 1036.2 |
| 20260505095251 | 58 | 303 | 4.0 | 18.0 | 0.00 | 0.00 | 0.00 | 82 | 1036.9 |
| 20260505094746 | 55 | 246 | 1.0 | 4.0 | 0.00 | 0.00 | 0.00 | 82 | 1036.4 |
| 20260505094243 | 55 | 326 | 2.0 | 3.0 | 0.00 | 0.00 | 0.00 | 82 | 1036.1 |
| 20260505093739 | 54 | 250 | 2.0 | 3.0 | 0.00 | 0.00 | 0.00 | 83 | 1035.9 |
| 20260505093237 | 53 | 281 | 2.0 | 3.0 | 0.00 | 0.00 | 0.00 | 85 | 1035.6 |
| 20260505092734 | 53 | 229 | 2.0 | 3.0 | 0.00 | 0.00 | 0.00 | 85 | 1036.0 |
| 20260505092232 | 53 | 246 | 1.0 | 3.0 | 0.00 | 0.00 | 0.00 | 86 | 1035.5 |
| 20260505091729 | 52 | 210 | 2.0 | 3.0 | 0.00 | 0.00 | 0.00 | 86 | 1035.3 |
| 20260505091228 | 53 | 240 | 3.0 | 3.0 | 0.00 | 0.00 | 0.00 | 85 | 1035.4 |
| 20260505090725 | 53 | 248 | 2.0 | 4.0 | 0.00 | 0.00 | 0.00 | 84 | 1035.5 |
| 20260505090223 | 53 | 290 | 2.0 | 3.0 | 0.00 | 0.00 | 0.00 | 84 | 1035.3 |
| 20260505085720 | 53 | 231 | 2.0 | 3.0 | 0.00 | 0.00 | 0.00 | 84 | 1035.2 |
| 20260505085218 | 53 | 264 | 1.0 | 3.0 | 0.00 | 0.00 | 0.00 | 84 | 1035.2 |
| 20260505084715 | 53 | 270 | 2.0 | 3.0 | 0.00 | 0.00 | 0.00 | 84 | 1035.0 |
| 20260505084214 | 53 | 266 | 2.0 | 3.0 | 0.00 | 0.00 | 0.00 | 84 | 1035.2 |
| 20260505083710 | 53 | 246 | 3.0 | 3.0 | 0.00 | 0.00 | 0.00 | 84 | 1035.1 |
| 20260505083207 | 53 | 312 | 2.0 | 3.0 | 0.00 | 0.00 | 0.00 | 83 | 1035.1 |
| 20260505082703 | 54 | 270 | 2.0 | 3.0 | 0.00 | 0.00 | 0.00 | 83 | 1035.1 |
| 20260505082201 | 55 | 251 | 3.0 | 3.0 | 0.00 | 0.00 | 0.00 | 82 | 1035.3 |
| 20260505081656 | 55 | 278 | 2.0 | 3.0 | 0.00 | 0.00 | 0.00 | 81 | 1035.2 |
| 20260505081154 | 55 | 266 | 2.0 | 3.0 | 0.00 | 0.00 | 0.00 | 80 | 1035.3 |
| 20260505080651 | 55 | 262 | 0.0 | 3.0 | 0.00 | 0.00 | 0.00 | 80 | 1034.9 |
| 20260505080146 | 55 | 264 | 2.0 | 4.0 | 0.00 | 0.00 | 0.00 | 80 | 1035.1 |
| 20260505075642 | 55 | 297 | 1.0 | 5.0 | 0.00 | 0.00 | 0.00 | 81 | 1035.1 |
| 20260505075139 | 55 | 275 | 2.0 | 3.0 | 0.00 | 0.00 | 0.00 | 82 | 1035.0 |
| 20260505074636 | 55 | 239 | 2.0 | 3.0 | 0.00 | 0.00 | 0.00 | 82 | 1035.2 |
| 20260505074133 | 55 | 255 | 2.0 | 5.0 | 0.00 | 0.00 | 0.00 | 80 | 1035.0 |
| 20260505073631 | 56 | 270 | 2.0 | 3.0 | 0.00 | 0.00 | 0.00 | 80 | 1035.1 |
| 20260505073129 | 56 | 246 | 3.0 | 5.0 | 0.00 | 0.00 | 0.00 | 78 | 1034.9 |
| 20260505072624 | 55 | 231 | 2.0 | 3.0 | 0.00 | 0.00 | 0.00 | 80 | 1035.0 |
| 20260505072121 | 55 | 248 | 2.0 | 3.0 | 0.00 | 0.00 | 0.00 | 80 | 1034.8 |
| 20260505071617 | 55 | 5 | 3.0 | 3.0 | 0.00 | 0.00 | 0.00 | 81 | 1034.9 |
| 20260505071115 | 55 | 260 | 2.0 | 6.0 | 0.00 | 0.00 | 0.00 | 81 | 1034.8 |
| 20260505070612 | 54 | 215 | 1.0 | 3.0 | 0.00 | 0.00 | 0.00 | 82 | 1034.9 |
| 20260505070108 | 55 | 270 | 2.0 | 3.0 | 0.00 | 0.00 | 0.00 | 81 | 1035.0 |
| 20260505065604 | 55 | 243 | 1.0 | 6.0 | 0.00 | 0.00 | 0.00 | 80 | 1035.2 |
| 20260505065101 | 55 | 206 | 2.0 | 2.0 | 0.00 | 0.00 | 0.00 | 81 | 1035.2 |
| 20260505064558 | 54 | 246 | 2.0 | 3.0 | 0.00 | 0.00 | 0.00 | 83 | 1035.3 |
| 20260505064056 | 54 | 258 | 1.0 | 3.0 | 0.00 | 0.00 | 0.00 | 83 | 1035.4 |
| 20260505063553 | 54 | 251 | 3.0 | 3.0 | 0.00 | 0.00 | 0.00 | 83 | 1035.4 |
| 20260505063049 | 53 | 279 | 2.0 | 3.0 | 0.00 | 0.00 | 0.00 | 84 | 1035.4 |
| 20260505062545 | 53 | 297 | 1.0 | 4.0 | 0.00 | 0.00 | 0.00 | 83 | 1035.4 |
| 20260505062043 | 53 | 259 | 2.0 | 3.0 | 0.00 | 0.00 | 0.00 | 84 | 1035.5 |
| 20260505061540 | 53 | 240 | 2.0 | 3.0 | 0.00 | 0.00 | 0.00 | 83 | 1035.4 |
| 20260505061038 | 54 | 277 | 1.0 | 3.0 | 0.00 | 0.00 | 0.00 | 82 | 1035.3 |
| 20260505060535 | 54 | 263 | 1.0 | 3.0 | 0.00 | 0.00 | 0.00 | 82 | 1035.3 |
| 20260505060032 | 53 | 243 | 1.0 | 3.0 | 0.00 | 0.00 | 0.00 | 82 | 1035.1 |
| 20260505055527 | 54 | 266 | 3.0 | 3.0 | 0.00 | 0.00 | 0.00 | 81 | 1035.5 |
| 20260505055024 | 54 | 254 | 2.0 | 2.0 | 0.00 | 0.00 | 0.00 | 81 | 1035.3 |
| 20260505054521 | 54 | 258 | 2.0 | 4.0 | 0.00 | 0.00 | 0.00 | 81 | 1035.4 |
| 20260505054020 | 54 | 230 | 2.0 | 3.0 | 0.00 | 0.00 | 0.00 | 80 | 1035.3 |
| 20260505053516 | 54 | 255 | 3.0 | 3.0 | 0.00 | 0.00 | 0.00 | 81 | 1035.4 |
| 20260505053013 | 54 | 260 | 3.0 | 4.0 | 0.00 | 0.00 | 0.00 | 79 | 1035.4 |
| 20260505052510 | 54 | 251 | 3.0 | 3.0 | 0.00 | 0.00 | 0.00 | 80 | 1035.6 |
| 20260505052008 | 55 | 270 | 2.0 | 4.0 | 0.00 | 0.00 | 0.00 | 79 | 1035.4 |
| 20260505051504 | 55 | 246 | 2.0 | 3.0 | 0.00 | 0.00 | 0.00 | 78 | 1035.6 |
| 20260505051003 | 55 | 330 | 2.0 | 5.0 | 0.00 | 0.00 | 0.00 | 76 | 1035.5 |
| 20260505050500 | 55 | 232 | 4.0 | 4.0 | 0.00 | 0.00 | 0.00 | 79 | 1035.6 |
| 20260505041428 | 53 | 248 | 2.0 | 2.0 | 0.00 | 0.00 | 0.00 | 82 | 1035.6 |
| 20260505040925 | 53 | 257 | 1.0 | 2.0 | 0.00 | 0.00 | 0.00 | 81 | 1035.6 |
| 20260505040422 | 53 | 249 | 1.0 | 2.0 | 0.00 | 0.00 | 0.00 | 81 | 1035.6 |
| 20260505035919 | 53 | 281 | 2.0 | 2.0 | 0.00 | 0.00 | 0.00 | 80 | 1035.4 |
| 20260505035415 | 53 | 233 | 2.0 | 2.0 | 0.00 | 0.00 | 0.00 | 81 | 1035.3 |
| 20260505034913 | 52 | 265 | 2.0 | 2.0 | 0.00 | 0.00 | 0.00 | 82 | 1035.2 |
| 20260505034409 | 52 | 277 | 0.0 | 3.0 | 0.00 | 0.00 | 0.00 | 82 | 1035.2 |
| 20260505033906 | 53 | 243 | 0.0 | 3.0 | 0.00 | 0.00 | 0.00 | 81 | 1035.5 |